FW3276 Weather Reports


time (UTC)temp
C
wind
direction
speed
KPH
gust
KPH
rain 1hr
cm
rain 24hr
cm
rain mn
cm
humidity
%
barometer
mb
20260901014537 18 252 0.0 0.0 0.00 0.03 0.03 61 1017.6
20260901013024 18 252 0.0 0.0 0.00 0.03 0.03 60 1017.6
20260901011527 18 252 0.0 0.0 0.00 0.03 0.03 59 1017.4
20260901010021 19 252 0.0 0.0 0.00 0.03 0.03 58 1017.2
20260901004520 19 252 0.0 0.0 0.03 0.03 0.03 58 1017.3
20260901003022 19 252 0.0 0.0 0.03 0.03 0.03 56 1017.0
20260901001520 19 252 0.0 0.0 0.03 0.03 0.03 56 1017.0
20260901000023 20 252 0.0 0.0 0.03 0.03 0.03 56 1017.0
20260831234519 20 252 0.0 0.0 0.00 0.00 0.00 55 1017.1
20260831233017 20 252 0.0 1.6 0.00 0.00 0.00 55 1017.1
20260831231516 20 252 0.0 3.2 0.00 0.00 0.00 56 1017.2
20260831230019 20 252 0.0 3.2 0.00 0.00 0.00 56 1017.3
20260831224513 20 252 0.0 4.8 0.00 0.00 0.00 55 1017.4
20260831223013 20 252 1.6 6.4 0.00 0.00 0.00 55 1017.5
20260831221512 20 229 1.6 6.4 0.00 0.00 0.00 55 1017.6
20260831220010 21 229 0.0 4.8 0.00 0.00 0.00 56 1017.7
20260831214519 21 229 0.0 0.0 0.00 0.00 0.00 56 1017.7
20260831213010 20 229 0.0 1.6 0.00 0.00 0.00 56 1017.6
20260831211515 20 229 0.0 6.4 0.00 0.00 0.00 56 1017.8
20260831210007 21 229 0.0 6.4 0.00 0.00 0.00 56 1017.9
20260831204512 21 240 0.0 4.8 0.00 0.00 0.00 55 1018.0
20260831203007 21 240 0.0 0.0 0.00 0.00 0.00 56 1017.9
20260831201505 21 240 0.0 0.0 0.00 0.00 0.00 55 1018.1
20260831200007 21 240 0.0 1.6 0.00 0.00 0.00 57 1017.9
20260831194504 21 240 0.0 3.2 0.00 0.00 0.00 57 1018.1
20260831193004 21 240 0.0 4.8 0.00 0.00 0.00 57 1018.4
20260831191601 21 240 0.0 4.8 0.00 0.00 0.00 56 1018.6
20260831184559 21 211 0.0 4.8 0.00 0.00 0.00 54 1018.9
20260831183102 21 252 0.0 6.4 0.00 0.00 0.00 55 1019.0
20260831181557 21 224 0.0 3.2 0.00 0.00 0.00 56 1018.9
20260831180056 21 224 0.0 1.6 0.00 0.00 0.00 57 1019.2
20260831174555 20 224 0.0 0.0 0.00 0.00 0.00 56 1019.2
20260831173056 21 224 0.0 3.2 0.00 0.00 0.00 55 1019.2
20260831171554 21 224 0.0 3.2 0.00 0.00 0.00 53 1019.3
20260831170057 21 224 1.6 4.8 0.00 0.00 0.00 51 1019.3
20260831164552 21 221 0.0 3.2 0.00 0.00 0.00 53 1019.1
20260831163050 20 256 0.0 6.4 0.00 0.00 0.00 52 1019.4
20260831161547 20 338 1.6 3.2 0.00 0.00 0.00 53 1019.4
20260831160054 20 327 1.6 4.8 0.00 0.00 0.00 53 1019.5
20260831154552 20 327 0.0 3.2 0.00 0.00 0.00 54 1019.5
20260831153046 20 327 0.0 6.4 0.00 0.00 0.00 54 1019.5
20260831151540 19 344 0.0 3.2 0.00 0.00 0.00 55 1019.4
20260831150044 19 344 1.6 4.8 0.00 0.00 0.00 54 1019.7
20260831144539 19 28 0.0 3.2 0.00 0.00 0.00 55 1019.6
20260831143040 19 28 0.0 3.2 0.00 0.00 0.00 55 1019.5
20260831141538 19 28 0.0 1.6 0.00 0.00 0.00 55 1019.6
20260831140043 19 28 0.0 0.0 0.00 0.00 0.00 56 1019.6
20260831134534 19 28 0.0 3.2 0.00 0.00 0.00 54 1019.6
20260831133033 18 28 0.0 1.6 0.00 0.00 0.00 55 1019.5
20260831131532 18 28 0.0 4.8 0.00 0.00 0.00 55 1019.4
20260831130031 18 355 0.0 3.2 0.00 0.00 0.00 55 1019.5
20260831124530 18 343 0.0 0.0 0.00 0.00 0.00 59 1019.4
20260831123028 18 342 0.0 0.0 0.00 0.00 0.00 60 1019.4
20260831121528 17 342 0.0 0.0 0.00 0.00 0.00 61 1019.3
20260831120027 17 342 0.0 0.0 0.00 0.00 0.00 61 1019.4
20260831114543 17 342 0.0 3.2 0.00 0.00 0.00 61 1019.3
20260831113023 17 342 0.0 0.0 0.00 0.00 0.00 62 1019.4
20260831111520 17 342 0.0 1.6 0.00 0.00 0.00 61 1019.4
20260831110016 17 342 0.0 0.0 0.00 0.00 0.00 61 1019.2
20260831104526 17 342 0.0 0.0 0.00 0.00 0.00 61 1018.9
20260831103015 17 342 0.0 0.0 0.00 0.00 0.00 61 1018.8
20260831101517 17 342 0.0 1.6 0.00 0.00 0.00 61 1018.6
20260831100014 17 342 0.0 1.6 0.00 0.00 0.00 61 1018.6
20260831094513 17 342 0.0 0.0 0.00 0.00 0.00 61 1018.7
20260831093012 17 342 0.0 0.0 0.00 0.00 0.00 60 1018.7
20260831091521 17 342 0.0 0.0 0.00 0.00 0.00 60 1018.7
20260831090017 17 342 0.0 0.0 0.00 0.00 0.00 60 1018.5
20260831084515 17 342 0.0 0.0 0.00 0.00 0.00 59 1018.6
20260831083008 17 342 0.0 0.0 0.00 0.00 0.00 59 1018.5
20260831081507 17 342 0.0 3.2 0.00 0.00 0.00 58 1018.5
20260831080005 17 342 0.0 0.0 0.00 0.00 0.00 57 1018.7
20260831074505 17 342 0.0 0.0 0.00 0.00 0.00 57 1018.5
20260831073004 18 342 0.0 0.0 0.00 0.00 0.00 57 1018.6
20260831071500 18 342 0.0 0.0 0.00 0.00 0.00 57 1018.6
20260831070101 18 342 0.0 0.0 0.00 0.00 0.00 57 1018.7
20260831064608 18 342 0.0 3.2 0.00 0.00 0.00 57 1018.7
20260831063057 18 342 0.0 0.0 0.00 0.00 0.00 55 1018.8
20260831061557 18 342 0.0 0.0 0.00 0.00 0.00 54 1018.9
20260831060057 18 342 0.0 0.0 0.00 0.00 0.00 54 1018.8
20260831054603 18 342 0.0 3.2 0.00 0.00 0.00 53 1019.0
20260831053053 18 342 0.0 4.8 0.00 0.00 0.00 54 1019.0
20260831051553 18 344 0.0 3.2 0.00 0.00 0.00 54 1019.0
20260831050055 18 344 0.0 4.8 0.00 0.00 0.00 53 1018.8
20260831044609 19 344 0.0 0.0 0.00 0.00 0.00 53 1019.0
20260831043049 19 344 0.0 0.0 0.00 0.00 0.00 54 1018.9
20260831041608 19 344 0.0 0.0 0.00 0.00 0.00 54 1018.9
20260831040047 19 344 0.0 0.0 0.00 0.00 0.00 54 1019.0
20260831034546 19 344 0.0 0.0 0.00 0.00 0.00 54 1019.0
20260831033046 19 343 0.0 0.0 0.00 0.00 0.00 53 1019.3
20260831031545 19 344 0.0 0.0 0.00 0.00 0.00 53 1019.4
20260831030050 19 344 0.0 3.2 0.00 0.00 0.00 52 1019.5
20260831024545 19 344 0.0 3.2 0.00 0.00 0.00 52 1019.4
20260831023044 20 344 0.0 0.0 0.00 0.00 0.00 52 1019.4
20260831021543 20 344 0.0 0.0 0.00 0.00 0.00 53 1019.6
20260831020043 20 344 0.0 0.0 0.00 0.00 0.00 53 1019.7